Regional Weather Roundup
Issued by NWS Kansas City/Pleasant Hill, MO

Home | Current Version | Previous Version | Graphics & Text | Print | Product List | Glossary Off
Versions: 1 2 3 4 5 6 7 8 9 10 11 12 13 14 15 16 17 18 19 20 21 22 23 24 25 26 27

000
ASUS43 KEAX 180710
RWREAX

WEATHER ROUNDUP FOR EASTERN KANSAS AND NORTHWEST MISSOURI
NATIONAL WEATHER SERVICE KANSAS CITY/PLEASANT HILL MO
100 AM CST THU JAN 18 2018

KSZ040-057-103>105-MOZ028-029-037-043-180800-
...KANSAS CITY METROPOLITAN AREA...

CITY           SKY/WX    TMP DP  RH WIND       PRES   REMARKS
K.C. INTL      CLOUDY    16   9  74 SW9       30.35F WCI   4
K.C. DOWNTOWN  CLOUDY    22   9  57 SW10      30.38F WCI  11
LEES SUMMIT    CLOUDY    17   9  70 SW12      30.38F WCI   4
OLATHE - IXD   CLOUDY    12   7  80 S10       30.38F WCI  -1
OLATHE - OJC   CLOUDY    13   8  81 S8        30.37F WCI   2
LAWRENCE       CLOUDY    18   9  68 VRB3      30.37F

$$

MOZ001>008-011>017-020>025-030>033-038>040-044>046-053-054-180800-
...NORTHERN AND CENTRAL MISSOURI...

CITY           SKY/WX    TMP DP  RH WIND       PRES   REMARKS
ST. JOSEPH     CLOUDY    15  11  83 S5        30.36F WCI   8
MOSBY          CLOUDY    18  10  73 S3        30.39F
WARRENSBURG    CLOUDY    16   9  73 S7        30.41F WCI   6
WHITEMAN AFB   CLOUDY    16   7  67 SW10      30.36F WCI   4
CLINTON        CLOUDY    14   7  73 MISG      30.44F
SEDALIA        CLOUDY    18  11  74 SW15      30.41F WCI   4
WARSAW         NOT AVBL
CHILLICOTHE      N/A     14   8  77 S7        30.38F WCI   4
KIRKSVILLE     CLOUDY    17  11  77 SW12G20   30.34F WCI   4

$$

MOZ041-047>049-056>058-063>065-088>090-097-180800-
...EASTERN AND SOUTHERN MISSOURI...

CITY           SKY/WX    TMP DP  RH WIND       PRES   REMARKS
ST. LOUIS INTL CLOUDY    21   9  59 W14       30.42F WCI   8
SPIRIT OF STL  CLOUDY    21   8  57 W13       30.42F WCI   9
COLUMBIA       CLEAR     13   7  77 SW8       30.41F WCI   2
JEFFERSON CITY CLOUDY    16   8  71 CALM      30.46F
ROLLA          CLOUDY    15   7  70 SW13      30.42F WCI   1
OSAGE BEACH    CLOUDY    10   5  80 S6        30.45F WCI   0
SPRINGFIELD    CLEAR     12   5  73 S8        30.43F WCI   0
BRANSON        CLOUDY    18   7  62 SW6       30.46F WCI   9
JOPLIN         CLOUDY    18   7  62 S9        30.47F WCI   7
WEST PLAINS    CLOUDY    14   5  67 CALM      30.46F

$$

IAZ060-094-KSZ022-034>040-054-083-096-NEZ052-066-093-180800-
...KANSAS...SOUTHEAST NEBRASKA AND IOWA...

CITY           SKY/WX    TMP DP  RH WIND       PRES   REMARKS
TOPEKA         CLOUDY    21  10  62 SW5       30.36F WCI  15
MANHATTAN      CLEAR     23   9  55 SW12      30.33F WCI  12
EMPORIA        CLEAR     17   8  67 S9        30.36F WCI   6
CHANUTE          N/A    N/A N/A N/A MISG      30.44F
WICHITA        CLOUDY    19   8  62 S12       30.37F WCI   7
OMAHA          CLEAR     15  10  80 SE10      30.25F WCI   2
LINCOLN        CLOUDY    20  10  65 SW5       30.26F WCI  13
FALLS CITY     CLEAR     19  10  68 S8        30.31F WCI   9
LAMONI         CLOUDY    18  11  74 SW15      30.27F WCI   4
DES MOINES     CLEAR     21  12  68 SW15      30.23F WCI   8

$$





USA.gov is the U.S. government's official web portal to all federal, state and local government web resources and services.